Volver al catálogo

COSMOS 446

ActivoMilitarLEO
NORAD 5549·PAYLOAD·🇷🇺 Russia

Lanzado Oct 13, 1971 desde Plesetsk Cosmodrome

Loading…

Próximos Pases (próximas 24 horas)

TLE

ActualizadoSource: Space-Track

Época: Sep 14, 2026, 04:45 UTC

1 05549U 71086C   26257.19857102 -.00000003  00000-0  84807-4 0  9995
2 05549  74.0326 358.3481 0084035 323.0298  36.4982 12.54462280514934

Sigue COSMOS 446 en tiempo real con AllMySat

Download on the App Store